Regional Weather Roundup
Issued by NWS

Home | Current Version | Previous Version | Graphics & Text | Print | Product List | Glossary On
Versions: 1 2 3 4 5 6 7 8 9 10 11 12 13 14 15 16 17 18 19 20 21 22 23 24 25 26 27 28 29 30 31 32 33 34 35 36 37 38 39 40 41 42 43 44 45 46 47 48 49 50
000
ASUS43 KLMK 271202
RWRKY
KENTUCKY REGIONAL WEATHER ROUNDUP
NATIONAL WEATHER SERVICE LOUISVILLE KY
800 AM EDT SAT AUG 27 2016

NOTE "FAIR" INDICATES FEW OR NO CLOUDS BELOW 12,000 FEET
WITH NO SIGNIFICANT WEATHER AND/OR OBSTRUCTIONS TO VISIBILITY.

KYZ001>023-026-027-061>063-070>075-271300-
WESTERN AND SOUTH CENTRAL KENTUCKY

CITY           SKY/WX    TMP DP  RH WIND       PRES   REMARKS
PADUCAH        MOCLDY    71  69  93 CALM      30.06R
HENDERSON      CLOUDY    73  70  88 CALM      30.06R
OWENSBORO      CLOUDY    73  73 100 VRB3      30.08R
HOPKINSVILLE   CLOUDY    72  71  97 VRB1      30.07R
BOWLING GREEN  CLOUDY    73  70  90 CALM      30.08R
GLASGOW        CLEAR     73  73 100 CALM      30.09R
$$

KYZ024-025-028>034-038-045-046-053-271300-
NORTH CENTRAL KENTUCKY

CITY           SKY/WX    TMP DP  RH WIND       PRES   REMARKS
LOUISVILLE/SDF CLOUDY    78  73  84 N3        30.08R
LOUISVILLE/LOU PTCLDY    76  72  87 CALM      30.09R
FORT KNOX      NOT AVBL
$$

KYZ035>037-039>044-047>052-055>060-089>105-271300-
NORTHEAST KENTUCKY

CITY           SKY/WX    TMP DP  RH WIND       PRES   REMARKS
LEXINGTON      PTCLDY    75  69  81 CALM      30.12R
COVINGTON      PTSUNNY   75  73  93 CALM      30.11R FOG
FRANKFORT      CLOUDY    73  70  90 CALM      30.10R FOG
$$

KYZ054-064>069-076>088-106>120-271300-
SOUTHEAST KENTUCKY

CITY           SKY/WX    TMP DP  RH WIND       PRES   REMARKS
JACKSON        SUNNY     73  69  87 E3        30.14R
LONDON         SUNNY     71  68  90 CALM      30.13R
SOMERSET       PTCLDY    70  70 100 CALM      30.12S
MIDDLESBORO    FOG       68  68 100 CALM      30.16R VSB<1/4
MONTICELLO     MOSUNNY  N/A N/A N/A W9        30.12S
$$





USA.gov is the U.S. government's official web portal to all federal, state and local government web resources and services.